Location: Kellogg
(38.0159°N, 90.0546°W)
Time: 08:18:05
(UTC+00:00)

S-56A Canister/Altair - Pass Details

Date: 15 September 2024
Orbit: 636 x 2487 km, 38.9° (Epoch: 09 October)

Event Time Altitude Azimuth Distance (km) Brightness Sun altitude
Rises 08:03:36 0° 279° (W) 5,007 - -39.6°
Reaches altitude 10° 08:07:42 10° 265° (W) 4,307 - -39.0°
Maximum altitude 08:15:53 21° 222° (SW) 3,899 - -37.8°
Drops below altitude 10° 08:25:27 10° 180° (S) 5,078 - -36.5°
Exits shadow 08:29:56 - 169° (S) 5,931 11.8 -35.8°
Sets 08:31:01 0° 167° (SSE) 6,146 11.9 -35.6°
